Location: Il Ritiro
(43.4167°N, 13.1333°E)
Time: 01:21:56
(UTC+00:00)

DELTA 2 R/B (1) - Pass Details

Date: 05 July 2020
Orbit: 790 x 803 km, 39.6° (Epoch: 11 August)

Event Time Altitude Azimuth Distance (km) Brightness Sun altitude
Rises 20:36:57 0° 228° (SW) 3,278 6.7 -14.9°
Reaches altitude 10° 20:39:37 10° 220° (SW) 2,353 5.9 -15.2°
Maximum altitude 20:44:33 34° 157° (SSE) 1,298 4.1 -15.7°
Enters shadow 20:49:10 12° 96° (E) 2,253 5.6 -16.2°
